sat.trackr.live / text

‹ back to catalog

STARLINK-6142

NORAD 57113 · 2023-090N

PAYLOAD ACTIVE UNKNOWN

§ Identity

Operator
Country
US
Launch date
2023-06-23
Launch site
AFETR
Launch vehicle
Mass (kg)
RCS (m²)

Purposes: comms

External: N2YO · Heavens-Above · Gunter

§ Orbital elements

Epoch: 2026-09-20T06:30:05.868000Z

Period
94.27 min
Inclination
43.0028°
Eccentricity
0.0001530
Mean motion
15.27577963 rev/d
Perigee alt
482.0 km
Apogee alt
484.1 km
Semi-major
6,861.2 km
B*
1.0627e-5
RAAN
262.4459°
Arg perigee
263.7590°
Mean anomaly
96.3087°
Rev number
18,009

§ Raw data

STARLINK-61421 57113U 23090N   26263.27090125  .00000030  00000+0  10627-4 0  99982 57113  43.0028 262.4459 0001530 263.7590  96.3087 15.27577963180092

JSON: /api/v1/satellites/57113 · /tle

For live sub-satellite position, see the globe view (requires WebGL).

§ Visibility from observer

Set your observer location to see the next 7 days of passes ≥ 10°. The values pass through the URL so the page stays shareable.

No JS? Fill the form by hand. The geolocation button needs JavaScript.